Location: Unspecified
(0.0000°N, 0.0000°E)
Time: 01:14:23
(UTC+02:00)

NATO 3D Rocket - Visible Passes

Search period start: 29 August 2014 00:00
Search period end: 08 September 2014 00:00
Orbit: 670 x 2297 km, 21.5° (Epoch: 24 August)

Date Brightness Start Highest point End Pass type
(mag) Time Alt. Az. Time Alt. Az. Time Alt. Az.
29 Aug 6.6 04:44:09 26° N 04:44:09 26° N 04:54:07 10° NE visible
29 Aug 7.0 06:41:35 10° NW 06:52:07 29° N 07:03:31 10° ENE visible
29 Aug 4.8 21:27:56 10° SSW 21:31:03 22° S 21:31:03 22° S visible
30 Aug 7.1 03:50:39 18° NNE 03:50:39 18° NNE 03:54:33 10° NE visible
30 Aug 6.8 05:46:12 17° NW 05:52:56 26° N 06:03:41 10° ENE visible
30 Aug 5.1 20:31:57 10° SSW 20:34:46 15° SSE 20:37:39 10° SE visible
30 Aug 6.1 22:33:11 10° WSW 22:33:30 12° SW 22:33:30 12° SW visible
31 Aug 6.7 04:52:46 23° N 04:53:58 24° N 05:03:39 10° NE visible
31 Aug 6.9 06:51:00 10° NW 07:01:55 33° NNE 07:13:53 10° ENE visible
31 Aug 4.2 21:36:51 10° SW 21:40:24 36° S 21:40:24 36° S visible
01 Sep 7.0 03:59:22 18° NNE 03:59:22 18° NNE 04:03:40 10° NE visible
01 Sep 6.8 05:54:55 14° NW 06:02:51 28° NNE 06:13:56 10° ENE visible
01 Sep 4.5 20:40:28 10° SW 20:44:27 26° SSE 20:47:19 15° ESE visible
01 Sep 6.2 22:42:43 10° WSW 22:42:54 11° WSW 22:42:54 11° WSW visible
02 Sep 6.6 05:01:34 22° N 05:04:00 24° N 05:13:40 10° ENE visible
02 Sep 6.8 07:00:09 10° NW 07:11:28 39° NNE 07:24:10 10° E visible
02 Sep 3.7 21:46:06 10° WSW 21:49:50 55° SW 21:49:50 55° SW visible
03 Sep 6.9 04:08:16 18° NNE 04:08:16 18° NNE 04:13:19 10° NE visible
03 Sep 6.7 06:03:50 13° NW 06:12:33 32° NNE 06:24:17 10° ENE visible
03 Sep 3.6 20:49:23 10° SW 20:54:04 47° SSE 20:56:47 22° E visible
04 Sep 6.5 05:10:35 23° N 05:13:51 26° NNE 05:23:59 10° ENE visible
04 Sep 6.5 07:09:08 10° NW 07:20:46 48° NNE 07:34:10 10° E visible
04 Sep 4.0 21:55:41 10° WSW 21:59:20 48° WNW 21:59:20 48° WNW visible
05 Sep 6.8 04:17:23 20° NNE 04:17:23 20° NNE 04:23:28 10° ENE visible
05 Sep 6.5 06:12:57 14° NW 06:21:59 40° NNE 06:34:29 10° E visible
05 Sep 3.2 20:58:39 10° WSW 21:03:37 90° SSE 21:06:18 26° ENE visible
06 Sep 6.3 05:19:47 26° NNW 05:23:28 31° NNE 05:34:20 10° ENE visible
06 Sep 6.2 07:18:08 10° NW 07:29:51 62° NNE 07:43:49 10° E visible
06 Sep 4.9 22:05:43 10° W 22:08:51 28° NW 22:08:51 28° NW visible
07 Sep 6.6 04:26:40 23° NNE 04:26:40 23° NNE 04:33:53 10° ENE visible
07 Sep 6.1 06:22:15 15° NW 06:31:12 50° NNE 06:44:21 10° E visible
07 Sep 4.0 21:08:17 10° W 21:13:10 47° NNW 21:15:48 23° NE visible
